Back to catalog

CONNECTA IOT-12

AliveCommunicationsSSO
NORAD 64553·PAYLOAD·🇹🇷 Turkey

Launched Jun 23, 2025 from Vandenberg Space Force Base

Loading…

Next Passes (next 24 hours)

TLE

FreshSource: Space-Track

Epoch: Sep 14, 2026, 07:16 UTC

1 64553U 25135AB  26257.30289246  .00002809  00000-0  12965-3 0  9990
2 64553  97.4825  12.1087 0002354  82.4080 277.7423 15.21049985 68410

Track CONNECTA IOT-12 in real time with AllMySat

Download on the App Store